CAPE
1838 2042 1915 1865 1588 1676 2069 1827 2009 2091 1978 2127 2371 2326 2298 1786 1967 1970 1808 1792 1794 1336 1154 1184 1204 1178 1186 1176 1389 1293 1986 1279 2032 2384 2059 1594 1405 1771 2039 1929 2164 2521 2864 3158 3108 3136 2610 2167 1973 2050 2107 2104 2113 2163 2018 1828 1796 2067 2165 2763 1609 1573 1562 1755 1984 1730 1568 1624 2101 2135 2167 1915 2084 2468 3059 2910 2808 2720 2747 2558 2456 2621 2765 2516 2507
2011 2266 1982 1822 1797 2112 2227 2130 2258 2210 1942 1767 1674 2163 2312 2277 2192 2270 2374 2251 2260 1729 1641 1609 1901 1686 2061 2317 1945 2009 1912 2041 1752 2259 2100 1954 1765 1898 2013 1431 1621 2512 2832 3129 3248 3010 2739 2364 2170 2192 2180 2183 2324 2439 2436 2398 2472 2116 1806 1826 1941 1332 1325 1272 1386 1774 1413 1596 1525 1631 1858 2332 2394 2667 3528 3234 3060 2702 2659 2458 2698 2622 2820 2626 2530
1995 2451 2387 2234 2241 2153 1986 1957 1958 1974 2097 2057 1956 1915 2229 2511 2339 2199 2450 2681 2206 1364 1453 1544 2208 1806 1546 1545 1944 2241 2383 2227 1552 2000 1762 1557 2114 1587 1592 1613 2081 2469 2540 2839 2732 2532 2605 2452 2085 1826 1736 1975 2437 2777 2724 2474 2464 1953 1913 1811 1544 1284 1293 1147 1562 1522 1044 1180 1537 1070 1802 1072 1792 2539 3238 3279 2929 3031 2879 2886 2711 2721 2778 2927 2692
2052 2044 2219 1992 2283 2369 1978 2183 2110 2028 2380 2484 2157 2100 1930 2123 2313 2517 2650 2615 2576 1902 2103 2597 2715 2901 2211 1857 1563 1205 1297 1557 1202 1862 1698 1570 1437 1481 1850 1478 2468 2260 1578 1811 2449 1625 2153 2425 1990 1678 1551 1987 2251 2694 2834 2257 2370 1912 1468 1595 1565 1497 1107 1084 1175 1482 1313 1252 1416 1826 1663 863 1321 1040 1220 1799 3292 3232 3211 3107 2994 2688 2964 2928 2704
2064 2022 2084 1949 2230 2272 2206 1869 1860 1929 2036 1949 1998 2118 2381 2373 2501 2661 2697 2748 2868 2805 2676 2627 2094 1808 1842 1671 1469 1373 1394 1227 1361 1229 1548 1566 1648 1940 1770 2188 2563 2242 1900 1783 1965 1402 2386 2594 2556 1854 1726 1800 1960 2481 2726 2014 1809 1535 1342 1326 1572 1482 937 808 1304 1406 1261 1079 1029 1033 1676 1878 1498 1750 886 2206 2846 2928 3278 3421 3287 2578 3218 3101 3067
1935 1930 1882 2102 2146 2253 2216 2139 2055 1874 1704 2069 2155 2400 2627 2625 2445 2337 2343 2420 2722 2821 2686 2585 2085 1699 1707 1573 1441 1449 1528 1515 1358 1265 1573 1660 1820 2211 2378 2070 2068 2053 1599 1944 1239 1874 2248 2735 2922 2511 1893 1864 2004 2326 2230 2050 1723 1415 1335 1250 1272 1532 1416 1101 1132 1710 1257 1435 1409 1107 1151 1593 1278 1186 757 1407 2144 2226 2962 3172 3482 3315 3343 3278 3063
1953 1870 1812 1882 1911 1948 1846 1954 1657 2011 2124 2108 2072 2021 2118 2224 2448 2598 2683 2582 2388 2390 2527 2643 2478 2180 2076 1855 1812 1438 1280 1490 1558 1680 1792 2001 2079 1996 1966 1936 1841 1982 2010 1760 1653 1632 2448 2517 2904 2857 2404 2058 1986 2386 2528 2202 1534 1373 1161 1066 1247 1176 1441 1295 1227 1161 1619 1276 1245 1160 1251 1543 1655 1710 1703 1201 1310 2299 2171 3029 3332 3699 3585 3535 3152
1688 1753 1716 1663 1687 1627 1756 1807 2008 2109 2234 2292 2125 2031 2044 1813 1926 2015 2200 2317 2276 2248 2463 2705 2816 2766 2732 2587 2310 2061 1900 1890 2074 2062 1993 2067 1817 1665 1796 1798 1694 1568 2001 1135 1885 1290 1724 2358 2841 2970 2584 2207 2119 2388 2286 2052 1598 1213 1171 1196 1253 1251 1254 1596 1569 919 974 1849 1465 1334 1374 1229 1438 1692 1693 1307 1319 1217 1882 2217 2688 3577 3403 3369 3349
1204 1163 1280 1148 1207 1360 1492 1530 1488 1610 1695 2012 2184 2150 2135 1885 1840 1803 1531 1884 1888 1902 2182 2474 2636 2634 2678 2420 2630 2446 2383 2205 1976 1648 1405 1569 2167 2082 2117 1583 1567 1807 1871 1481 1100 1578 1435 1892 2472 2717 2680 2619 2538 2233 2067 2006 1924 1248 1416 1662 1751 1685 1444 1552 1550 1312 876 648 1099 1595 1219 1401 1614 1884 1970 1845 1756 1568 1516 1505 1883 3786 3500 3338 3169
823 860 826 736 655 732 810 1073 1271 1296 1302 1417 1466 1529 1613 1817 1847 1790 1805 1834 1812 1799 1779 1764 1995 2316 2423 2575 2706 2607 2376 2205 2042 1622 2424 2591 2246 2171 2135 2206 1826 1595 1520 2059 2144 2244 2329 2408 2487 2571 2640 2487 1922 1521 1553 2084 1892 1678 1592 1946 2079 1864 1544 1245 1370 1344 996 836 784 1140 1706 2264 1844 1477 1837 1945 1918 1977 1733 1130 1357 1426 2238 2350 3016
584 642 680 661 511 431 352 405 684 829 900 1048 1109 1239 1325 1429 1504 1529 1614 1619 1612 1652 1641 1442 1599 1770 2188 2440 2329 2234 2272 2181 2297 2316 2442 2530 2378 2181 2197 2308 2176 1877 2111 1739 1451 1823 2309 2368 2430 2324 2334 2453 2225 1493 1970 1920 1819 1744 1769 1886 1661 1698 1429 1216 1126 1103 973 864 917 859 1190 1484 1944 1864 1804 1892 1762 2064 2272 2202 1893 1955 2059 1904 2043
184 393 428 455 597 554 731 876 772 619 521 513 645 742 1032 1320 1366 1477 1492 1411 1352 1287 1530 1502 1603 1738 1915 1931 2024 2149 2219 2170 2326 2291 2421 2335 2161 1868 2021 1983 2208 1982 1982 1554 1432 2091 2227 2281 2470 2409 2274 2252 2289 2447 2344 2039 1916 1806 1703 1569 1535 1603 1680 1310 1137 1154 1036 1004 1119 930 852 1075 1220 1223 1429 1554 2070 2060 1919 1926 1692 1777 2047 1922 1660
6 34 38 46 160 221 293 438 501 546 704 657 644 686 683 704 835 902 982 1356 1452 1418 1406 1409 1435 1483 1664 1862 1970 1954 2172 2258 2447 2468 2347 2335 2356 2228 2022 2002 1980 2129 1885 1610 1739 1908 2134 2374 2520 2457 2436 2441 2516 2392 2268 2467 2200 2085 1750 1535 1469 1688 1638 1383 1311 1266 1197 1126 963 1001 870 909 1016 930 931 1204 1506 1824 2093 2439 2108 1580 1705 1930 1822
30 53 74 108 124 205 378 353 293 311 411 585 727 762 683 630 629 614 640 785 904 899 966 1108 1268 1387 1502 1576 1572 1585 1911 2116 2181 2324 2240 2223 2200 2327 2089 2006 1988 1903 1500 1633 2054 1432 2062 2206 1769 2270 2632 2562 2517 2456 2925 2984 2921 2811 2285 1932 1597 1556 1459 1488 1415 1334 1317 1243 1142 1042 1196 980 978 1078 1064 1056 1202 1403 1842 1990 2273 2054 1854 1684 1931
43 49 62 36 106 218 170 232 230 162 140 246 466 541 599 569 445 440 459 622 642 736 694 888 778 1040 1104 1122 1314 1498 1544 1568 1779 1749 2093 2124 2148 2171 2298 2072 2019 2124 1934 1890 1835 1907 2099 2143 1625 1549 2740 2869 2734 2700 2672 2703 2920 2739 2472 2641 1730 1292 1254 1300 1362 1305 1174 1183 1209 1072 912 1132 1170 1070 1005 1055 1285 1252 1322 1612 2125 2091 1572 1402 1539
38 113 102 88 163 190 196 193 107 69 96 127 218 264 262 465 472 383 400 392 542 674 575 622 598 515 930 1074 972 1159 1347 1545 1588 1826 1896 1899 2108 2225 2202 2375 2233 2219 2089 1992 1809 1895 1983 2020 2068 2041 1868 1844 2943 2935 2922 2850 2883 2798 3096 2825 2168 1600 1249 1380 1476 1343 1219 1250 1336 1305 1204 1286 1284 1054 1007 1026 1346 1472 1360 1564 1794 1825 1964 1707 1338
144 66 24 76 69 80 126 132 37 25 11 65 147 122 156 157 122 213 184 286 453 507 681 624 596 734 536 628 788 927 1035 1041 1007 1265 1522 1688 2050 2444 2449 2431 2260 2196 2099 2074 2057 2018 1990 2048 2016 1990 1890 1949 1645 2776 2882 2677 2244 2816 3006 3368 2757 1506 1261 1327 1482 1307 1322 1335 1347 1245 1259 1197 1100 1143 1051 1113 1375 1684 1659 1525 1522 1648 2072 2096 2090
88 75 108 137 76 24 21 10 6 0 2 2 4 14 68 51 113 161 70 113 223 434 443 368 589 551 615 600 593 657 735 938 1187 1321 1399 1347 1658 1753 1852 1981 2026 2122 2004 2028 2026 1973 2148 2149 2136 2174 2015 1814 1412 1606 2804 2719 2908 2893 3092 3503 3296 2281 1253 1289 1381 1394 830 967 988 994 882 686 697 672 941 1076 1268 1648 1796 1738 1569 1660 1984 2085 2125
157 238 240 127 71 64 14 7 3 0 16 0 0 0 0 17 105 56 39 52 124 152 192 376 419 392 565 520 567 609 627 767 842 1077 1356 1414 1313 1384 1610 1685 1846 1964 2173 2249 2214 2182 2126 2089 2249 2329 2192 1458 1064 1275 2021 2853 2396 2631 3056 2756 2949 2984 2015 1399 1422 1288 884 550 755 736 596 475 404 388 473 579 1000 1328 1628 1790 1670 1728 1794 2038 2238
242 195 156 122 51 34 0 0 0 0 0 0 4 7 0 8 7 12 62 89 97 145 159 171 150 240 238 229 379 537 611 683 838 1009 1031 856 1374 1592 1560 1438 1548 1478 1660 1902 2073 2239 2457 2232 2288 2490 2152 1478 1337 1712 1856 2451 3122 3236 2960 2112 1971 2779 3005 1978 1530 1043 800 518 553 609 675 719 564 360 257 316 652 1025 1268 1594 1719 1637 1827 2054 2229
153 143 121 176 90 27 8 0 0 0 1 0 0 0 0 0 0 13 6 35 49 163 213 304 341 388 336 258 208 272 463 508 625 761 762 776 840 1147 1208 1314 1658 1651 1466 1669 1770 2183 2428 2391 2100 2217 2218 1833 1522 1678 1480 1536 2709 2986 2904 2686 2290 2149 2627 2730 1852 1444 834 611 548 552 642 762 805 411 429 507 577 644 955 1415 1547 1659 1747 2065 2384
126 40 2 2 40 61 2 0 1 0 0 2 0 0 0 0 26 37 52 139 116 161 312 476 554 504 535 432 423 592 670 735 748 609 716 650 802 930 1115 1598 1695 1788 1760 1707 1467 1950 1961 1958 1997 2020 2024 1642 1783 1406 1201 2336 1384 2289 2624 2414 2446 2086 2379 3468 2462 1899 1460 975 592 750 920 850 602 669 1007 1094 883 644 578 1112 1496 1574 1774 1878 1938
86 44 6 0 5 51 1 7 14 42 65 71 24 50 29 91 133 134 230 267 213 249 396 540 673 678 584 576 548 603 734 893 848 865 715 679 738 855 1234 1531 1612 1731 1909 1979 2179 1988 1883 1865 1892 2031 2196 2087 1953 2154 2136 1764 1347 2590 2600 2270 2047 2060 1711 3136 3147 2674 1853 1582 1057 945 978 936 904 1403 1332 1250 1228 911 797 1053 1380 1487 1775 1897 1964
40 66 6 19 41 6 28 4 2 34 35 20 93 130 145 102 77 86 119 247 385 396 372 458 488 501 546 615 588 571 669 739 804 886 795 728 838 942 1119 1418 1714 1960 1859 1886 1926 1839 1707 1926 1965 1815 1782 1832 1888 1851 2046 1986 1631 2555 2595 2466 1996 2163 2689 2838 2865 2646 2554 2389 1748 1567 1220 1372 1741 1728 1680 1635 1617 1420 1428 1375 1302 1404 1626 1827 2025
149 110 93 19 9 12 41 48 56 33 29 60 154 154 182 162 151 153 201 244 304 359 429 476 458 459 554 590 603 618 672 663 655 613 712 783 650 754 814 1048 1427 1704 1955 1935 2077 2006 1634 1606 1657 1634 1662 1687 1708 1588 1636 1216 1068 2111 2438 2447 2431 2468 2222 2248 2186 2206 2431 2694 2571 2074 1758 1860 1718 1729 1619 1538 1526 1610 1521 1453 1382 1390 1584 1754 1915
152 125 43 107 10 23 190 116 34 0 0 70 222 270 267 315 269 219 224 328 347 319 486 485 348 389 453 547 535 570 588 556 577 597 656 839 771 792 943 1066 1341 1493 1632 1538 1823 2122 2095 1780 1656 1603 1599 1469 1616 1724 1622 1764 2156 2035 2102 2223 2292 2235 2112 2117 2040 2087 2189 2173 2599 2657 2312 2405 2648 2294 2055 1824 1755 1743 1721 1688 1764 1858 1829 1731 1858
158 150 83 18 171 126 76 58 3 17 86 183 120 142 168 188 206 184 223 317 385 441 510 496 488 368 384 448 518 491 501 511 561 657 828 982 926 824 837 1091 1275 1419 1480 1543 1513 1921 2087 2184 2047 1595 1126 1479 1558 1778 1741 1991 1851 2187 1915 1817 2144 2268 2102 2125 2136 2339 2322 2514 2580 2211 2171 2391 2488 2047 1754 1715 1629 2171 1968 1833 1933 2194 2437 2127 1856
172 48 121 104 65 58 37 73 172 172 260 257 203 207 247 295 259 259 301 326 375 436 584 604 550 569 530 525 566 544 556 614 681 870 936 919 914 931 964 1074 1197 1357 1367 1382 1495 1624 1686 1935 2129 1359 1152 1012 1292 1560 1901 2365 2355 1615 2477 2099 2215 2244 2306 1840 2355 2634 2497 2372 2264 1969 2723 2620 2465 2506 2372 2271 2019 2417 2278 2405 2260 2434 2417 2306 2050
104 301 210 119 91 151 133 232 300 255 242 275 334 387 444 371 362 382 412 417 446 503 560 637 701 643 540 470 543 576 604 684 867 887 863 879 876 926 1032 1137 1228 1277 1268 1319 1471 1761 1804 1662 1570 1688 1711 1086 1026 1024 1723 2212 2130 956 920 2228 2364 2374 2321 2615 2785 2607 2516 2051 2005 2749 2906 2430 2577 2376 2223 2235 2153 2565 2639 2454 2752 2876 2652 2750 2910
62 51 43 90 76 106 100 97 97 139 232 318 408 458 407 345 394 420 399 463 438 488 616 641 587 541 454 474 616 616 726 788 790 823 870 930 906 981 1036 1147 1201 1277 1289 1377 1853 1622 1871 1833 1786 1507 1480 1588 1694 1494 1070 998 1013 1175 1113 1004 1281 2428 2474 2748 2856 2701 2173 2495 2822 2682 2484 2250 2178 2407 2552 2593 2556 2679 2849 2703 2933 3440 3149 3434 3876
68 87 47 68 60 59 40 20 50 147 274 411 488 489 412 408 458 434 451 412 422 540 655 457 408 478 474 531 572 631 647 750 739 770 902 972 1013 982 1016 1164 1222 1224 1297 1379 1472 1535 1598 1665 1850 1983 1753 1123 1076 1506 800 748 867 996 992 926 920 2331 2426 1885 1065 916 1259 1594 2406 2647 2488 2362 2375 2330 2684 2539 2513 2350 2331 2334 2368 2803 2868 3688 4223
89 68 91 81 54 37 24 12 32 126 264 436 511 435 380 403 409 441 437 473 587 662 493 442 336 447 462 476 514 585 685 686 673 827 844 942 930 986 1070 1114 1152 1186 1239 1261 1407 1718 1614 1662 1617 1798 1894 1827 1840 1170 864 825 799 894 1060 1065 1068 1006 1380 1319 1110 1090 1185 1438 1842 2538 2622 2384 2374 2378 2221 2223 2365 2236 2110 2074 1994 1980 2116 2439 3060
133 92 76 68 54 49 42 58 139 193 324 350 357 390 446 488 450 484 585 664 694 520 457 294 296 369 477 458 513 551 647 636 644 813 850 866 937 964 1027 1034 1097 1172 1193 1253 1366 1647 1744 1677 1711 1814 1802 1811 2033 1408 842 826 674 819 1026 1023 1010 797 1829 1610 1841 1440 1389 1646 1878 1672 2630 2834 2573 2543 2573 2543 2649 2569 2052 1887 1974 1927 1913 1790 1813
74 81 58 60 45 10 9 100 192 214 195 328 412 408 464 476 462 493 526 672 517 362 312 297 312 378 512 507 510 584 635 671 737 795 870 861 880 979 968 967 1087 1222 1304 1330 1324 1480 1598 1853 1768 1626 1680 1756 1870 1737 863 737 713 746 818 837 782 785 797 1553 1809 1417 1759 2013 1694 1620 1506 2010 3017 2912 2762 2887 2945 2885 3061 2822 2559 2472 2446 2320 1807
111 78 41 28 31 31 6 25 99 165 274 326 314 374 416 410 476 510 557 522 393 334 269 290 312 413 501 478 515 516 561 625 690 727 815 857 890 945 953 1018 1282 1408 1457 1519 1516 1257 1411 1490 1412 1419 1382 1312 1468 1339 990 729 674 692 691 678 686 681 856 1383 1680 1444 1626 2010 1798 1287 1316 1636 2071 3198 3019 2714 2851 2790 3020 2859 3004 3106 3009 2955 2952
50 19 19 17 0 14 29 150 301 210 206 250 327 392 420 476 473 453 374 358 381 368 242 224 303 337 441 464 495 483 539 584 663 705 774 833 910 887 915 1090 1356 1526 1480 1437 1519 1701 1580 1330 1448 1508 1470 1365 1524 1140 884 744 679 693 706 714 750 737 918 1646 1260 1260 1477 1651 1654 1580 1380 1519 1660 2695 2365 2266 2578 2788 2764 2709 2657 2483 2548 3122 3466
24 3 0 48 103 132 132 306 244 207 221 317 366 384 392 387 359 342 296 322 256 212 236 219 214 304 362 438 438 472 560 538 647 708 760 780 864 868 963 1194 1346 1394 1436 1460 1502 1527 1538 1436 1359 1313 1499 1508 1508 1656 1222 866 730 751 755 731 756 814 792 871 1121 1047 1393 1624 1528 1012 1054 1205 1468 2332 2067 1556 1710 2221 2797 2840 2770 2690 2620 2902 3211
0 4 27 130 150 111 159 171 216 338 304 323 367 355 296 234 243 217 239 187 173 191 198 189 228 307 331 351 427 476 532 556 590 694 716 802 853 842 914 1082 1312 1312 1352 1467 1597 1620 1597 1504 1313 1377 1315 1668 1696 1687 1415 1063 933 883 881 845 795 860 814 941 1024 1349 1556 1358 1779 1080 1142 1740 2267 2318 2124 1602 1494 1981 2411 2902 3459 3425 3570 3532 3124
0 2 19 52 104 311 428 287 209 235 261 339 328 240 223 222 221 226 164 144 182 212 225 227 235 327 351 366 426 501 531 537 602 649 764 820 778 885 936 1043 1300 1358 1359 1399 1297 1417 1540 1423 1405 1623 1616 1614 1680 1666 1291 1019 930 896 839 855 1127 1080 1294 1207 1109 1224 759 1651 978 890 1150 1491 1347 1379 1668 1607 1467 1738 2239 2235 2578 3170 2954 3019 2649
6 46 33 54 194 291 163 139 140 205 294 339 188 217 164 158 136 133 139 178 176 162 181 222 238 246 291 330 383 417 489 579 587 634 792 762 866 872 908 1199 1348 1316 1227 1192 1252 1299 1477 1510 1464 1486 1700 1833 1953 1914 1579 1264 974 831 794 760 1176 1261 1231 1266 1146 1156 1526 1333 1253 722 1602 1162 1072 1252 1423 1221 1351 1361 1310 2371 2266 1515 1348 1925 3088
0 5 93 128 161 101 99 138 137 279 384 298 269 195 132 131 157 114 107 146 105 109 198 210 189 210 201 256 368 380 433 565 564 701 711 737 803 807 876 1119 1281 1278 1224 1192 1253 1358 1459 1549 1420 1392 1409 1519 1603 1823 1749 1361 1104 872 811 756 624 1132 1230 1201 1101 1095 1006 1209 1298 1199 955 1036 1211 1134 1078 1136 1152 1229 1280 2155 2308 1231 1390 1430 2061
1 62 154 169 51 34 44 62 111 194 334 374 278 223 219 129 91 65 141 128 81 105 122 136 170 156 164 281 335 374 464 480 552 664 689 751 764 966 1110 1242 1274 1288 1162 1209 1257 872 1125 1540 1626 1724 1763 1680 1636 1547 1309 1254 1079 884 824 782 723 911 984 1188 1128 1015 1004 1024 1108 1152 1018 845 780 922 1083 1026 1037 1062 1130 1146 1847 1358 1281 1267 1726
7 38 28 52 77 67 40 64 89 284 348 351 296 290 185 191 148 118 136 120 82 65 90 95 100 140 184 290 315 396 488 404 546 592 685 757 915 1220 1323 1226 1192 1190 1272 1289 909 1228 1336 1457 1468 1576 1652 1696 1633 1591 1520 1516 1289 990 813 769 702 701 656 872 833 868 1000 995 1319 799 820 994 960 989 943 964 917 895 847 890 890 893 980 1113 1030
5 6 16 52 144 85 41 46 62 265 332 340 265 232 253 229 149 217 125 109 100 29 42 42 65 129 189 293 333 378 444 510 584 686 971 1101 1222 1264 1197 1183 1207 1283 1232 1106 1191 1260 1313 1393 1475 1514 1526 1487 1495 1594 1549 1227 1295 886 764 623 536 553 595 606 773 861 1073 1008 1011 662 1051 812 697 662 650 659 666 598 482 446 486 574 594 734 837
1 2 27 48 80 144 125 164 234 197 284 336 285 243 217 221 229 170 131 110 47 12 6 22 74 144 152 200 290 323 427 519 528 783 905 952 1048 1173 1220 1212 1141 1075 1240 1292 1197 583 432 867 1448 1512 1489 1552 1670 1632 1579 1448 1136 949 745 588 585 595 623 640 644 692 717 905 1033 798 836 854 810 717 668 564 448 332 242 200 186 172 208 305 484
13 8 16 78 49 55 62 140 291 268 275 273 232 192 174 180 172 100 62 23 17 16 10 7 36 51 102 162 258 337 367 360 522 694 787 856 938 1019 1040 1148 1148 1053 991 1096 1220 1126 609 607 856 1385 1477 1457 1622 1730 1582 1458 1357 1198 844 658 590 585 612 598 595 581 686 771 858 809 733 744 706 632 577 535 480 413 349 326 293 264 208 368 456
68 63 109 82 78 59 72 140 167 248 256 167 147 181 146 113 91 37 12 7 7 11 17 9 7 27 86 155 183 218 247 339 568 658 745 664 766 932 890 951 1017 1006 924 920 1024 1187 1018 800 720 1283 1536 1550 1564 1633 1486 1356 1465 1531 1424 1166 721 680 624 616 660 662 636 597 572 569 619 629 576 507 476 491 466 408 335 190 171 162 224 252 359
110 109 110 100 82 89 111 126 194 240 267 212 168 171 90 81 43 23 12 14 8 9 9 8 5 12 60 99 151 118 194 292 500 664 606 618 699 710 808 679 839 915 909 826 892 930 761 971 1090 1180 1438 1634 1721 1623 1355 819 858 1085 833 951 1031 1057 1060 964 851 744 712 672 658 609 529 496 444 440 424 386 370 348 269 354 428 443 319 237 178
106 82 108 97 94 124 142 136 213 249 273 243 190 116 67 41 33 32 31 10 9 12 8 10 8 10 31 30 66 87 136 226 413 506 542 655 701 578 730 911 1051 972 942 924 870 946 1141 636 719 1104 1265 1414 1494 1589 1651 1003 762 686 744 802 794 697 894 994 953 717 874 818 564 573 553 546 482 511 594 612 638 718 648 565 508 467 502 444 349
112 94 127 121 114 179 168 199 248 256 243 203 93 82 59 28 32 25 12 11 15 12 9 10 6 6 9 14 27 45 103 189 200 284 368 504 436 251 439 688 729 601 440 118 22 606 823 976 933 810 1000 1154 1234 1254 767 643 604 587 594 708 727 724 733 717 680 622 560 614 559 557 627 612 571 587 571 569 616 689 536 563 544 408 449 478 482
183 194 178 160 152 176 166 207 235 221 211 99 92 79 50 26 27 12 11 16 18 17 11 8 7 5 7 11 30 46 83 177 232 202 239 266 351 362 42 0 15 268 147 0 0 0 0 0 120 678 792 556 529 545 610 677 632 580 591 619 761 791 743 689 603 536 511 492 534 577 538 567 553 566 506 508 449 330 341 163 166 266 205 429 290
Wind_Speed
6 7 7 8 9 10 10 11 11 13 14 15 17 17 16 15 14 14 12 11 9 8 9 8 8 8 8 7 7 8 11 10 9 10 11 9 7 6 9 8 5 7 6 6 7 8 9 9 8 8 7 6 5 4 3 4 5 5 5 4 4 2 3 2 1 2 2 3 3 5 7 1 1 3 3 4 4 4 4 4 4 4 4 2 1
6 6 7 8 7 7 8 10 10 12 11 12 13 13 14 15 16 14 13 12 11 8 6 6 6 6 7 7 8 10 12 14 12 10 10 10 9 8 11 9 4 7 8 7 7 7 7 8 7 7 7 6 5 5 4 4 4 4 4 4 1 2 2 2 0 1 3 2 3 4 3 4 5 2 2 3 3 4 4 3 3 3 4 3 3
6 6 7 7 7 7 8 8 9 9 9 9 10 11 11 11 11 13 14 14 13 12 12 12 10 9 7 6 7 8 10 12 10 12 14 10 10 10 11 7 6 8 8 7 7 6 6 7 8 7 6 6 5 4 2 2 2 2 2 3 3 1 1 1 2 1 3 2 2 4 3 5 7 4 4 3 4 4 4 3 2 2 1 3 3
6 6 6 6 6 6 6 8 9 9 9 9 10 10 10 9 9 11 13 15 15 18 17 14 14 12 10 8 6 5 4 6 7 9 8 8 9 10 10 6 5 9 7 7 10 9 7 7 7 7 7 7 6 5 4 2 1 2 2 2 2 3 0 0 2 3 2 3 2 3 6 7 3 2 2 0 2 6 3 3 2 2 1 1 3
7 6 7 7 5 4 4 5 6 7 7 7 8 9 10 10 11 11 12 14 15 15 16 15 14 12 9 8 7 5 5 3 6 7 7 8 9 10 9 7 8 8 7 7 13 9 11 9 8 9 8 8 7 6 4 2 2 2 2 3 1 1 1 1 2 2 2 3 5 5 4 5 8 10 11 9 8 5 4 3 2 1 2 1 1
7 7 6 6 6 5 4 4 4 5 5 6 6 6 7 9 9 11 12 13 14 15 16 16 14 12 12 11 9 8 7 7 7 7 9 10 10 11 11 10 10 10 9 13 9 9 10 9 9 9 8 8 8 7 6 5 2 2 3 3 1 1 2 2 2 5 4 4 3 4 7 9 9 10 11 7 6 9 7 4 3 2 3 2 2
9 8 8 8 7 7 5 4 4 4 5 7 7 6 6 7 6 8 10 10 12 14 15 16 15 14 13 12 10 9 7 6 6 5 8 11 12 11 11 11 12 11 12 14 10 8 11 11 10 10 10 11 10 9 8 7 6 4 4 4 4 3 3 1 1 4 5 4 4 3 4 5 6 7 9 10 8 9 8 7 4 4 3 3 2
12 11 9 8 8 8 8 7 7 6 6 7 8 9 9 8 7 8 9 9 9 10 13 14 14 14 13 13 11 11 11 8 7 5 5 8 10 10 11 12 14 14 13 12 13 16 12 12 12 12 12 13 12 11 10 10 10 8 6 5 6 6 4 2 2 3 4 6 5 5 5 4 5 6 7 9 10 8 6 4 8 5 4 3 2
11 11 10 9 9 9 10 10 10 10 9 9 9 10 11 11 11 10 10 10 10 9 8 10 12 12 11 11 11 11 10 10 11 12 9 4 6 9 11 12 14 14 12 12 10 12 12 11 13 14 15 15 15 14 12 11 11 10 10 9 7 8 6 4 3 3 3 4 6 6 6 6 6 7 6 6 9 9 8 8 8 9 6 6 4
13 12 12 11 10 10 10 11 11 10 11 11 11 11 13 13 14 14 13 12 12 11 10 10 10 12 12 11 9 8 8 9 10 7 7 7 5 6 9 12 14 14 14 17 15 14 14 15 15 15 15 16 19 17 13 14 14 14 12 10 8 7 7 5 4 3 3 4 4 6 8 8 7 8 8 7 6 7 8 9 9 6 6 4 6
13 14 14 14 13 12 12 12 12 12 12 12 13 13 13 14 15 17 16 16 15 14 14 12 12 12 12 12 11 9 8 8 8 9 8 8 8 7 8 10 11 14 16 20 16 14 16 16 16 16 18 19 19 15 16 16 16 15 15 12 8 7 8 6 5 3 3 4 3 5 6 7 8 9 9 9 8 8 7 7 8 9 10 9 7
14 13 14 14 15 14 14 14 14 14 14 13 14 14 15 15 16 17 17 17 17 18 18 16 15 15 14 14 13 12 11 10 10 8 8 7 8 9 10 10 10 11 13 18 15 18 18 18 17 17 19 19 19 20 20 19 18 17 17 15 13 10 8 7 6 5 2 3 3 4 5 7 8 8 9 9 9 9 9 8 8 10 9 9 10
nan nan nan nan 13 13 14 15 15 16 16 16 16 16 16 16 17 18 18 18 18 18 18 19 18 17 17 17 16 16 15 14 13 12 11 11 11 11 11 11 11 10 11 12 15 16 17 17 18 19 20 21 21 21 21 20 20 19 17 16 15 13 11 8 8 6 5 4 5 4 6 7 8 9 9 9 10 10 9 9 9 10 10 10 9
nan nan nan 16 15 15 16 16 16 17 18 19 18 18 18 18 18 18 18 17 17 18 18 19 19 19 19 18 18 18 18 17 16 15 14 14 14 13 13 13 13 11 11 12 16 14 18 20 21 19 20 21 22 22 22 23 22 21 19 17 16 17 14 11 9 7 7 5 6 7 7 7 8 8 9 10 9 10 10 9 9 10 10 10 12
nan nan nan nan 16 16 15 16 17 17 18 19 20 20 19 19 18 17 16 16 16 16 17 18 19 19 19 19 20 20 19 19 18 18 17 16 15 14 15 15 14 14 15 14 13 13 15 18 19 19 22 22 23 23 24 24 24 22 20 19 18 19 17 14 12 9 9 8 7 8 8 8 9 9 10 10 11 11 11 12 12 12 12 12 10
nan 17 17 nan 16 16 16 16 17 nan nan 19 20 20 21 21 20 18 17 16 15 15 16 16 17 18 19 19 20 20 20 21 21 20 19 19 18 17 16 16 15 15 15 15 15 15 14 15 17 20 24 22 23 25 25 27 25 22 21 21 18 20 20 17 15 12 9 9 10 9 9 9 10 10 11 12 13 13 12 12 13 12 12 11 11
16 nan nan nan nan nan 18 17 nan nan nan nan 21 22 22 21 20 19 18 18 17 16 17 17 18 17 19 19 20 20 20 20 22 21 21 21 21 20 19 18 18 18 16 17 17 17 17 16 16 19 22 25 24 24 27 28 24 22 23 22 20 19 20 20 19 15 13 12 12 10 11 11 11 11 11 12 13 14 14 13 13 13 14 13 13
nan nan 16 15 nan nan nan nan nan nan nan nan nan nan nan nan 20 19 nan 19 19 19 20 20 20 20 21 21 21 21 22 22 22 23 24 24 24 23 22 21 21 20 19 19 18 18 18 18 18 19 21 25 25 22 26 28 27 25 25 24 23 22 20 22 22 19 16 14 12 12 12 11 11 11 11 12 13 14 14 14 14 14 15 14 14
16 16 15 15 nan nan nan nan nan nan nan nan nan nan nan nan 21 nan nan nan 21 22 23 23 24 24 24 23 22 23 24 24 24 24 25 25 25 26 25 24 23 22 22 21 20 19 19 20 21 22 23 25 25 24 24 28 27 27 28 27 25 24 22 21 23 22 21 17 14 12 13 13 14 12 12 12 12 13 14 15 15 16 15 15 15
16 15 15 15 nan nan nan nan nan nan nan nan nan nan nan nan nan nan nan nan nan 23 24 24 25 25 25 24 25 25 25 25 26 26 26 27 27 28 27 26 26 26 25 24 22 21 21 20 22 24 23 21 21 23 25 28 31 31 32 29 27 25 22 22 22 22 23 20 16 14 14 15 15 15 14 14 13 13 14 16 16 16 16 16 16
15 16 15 17 nan nan nan nan nan nan nan nan nan nan nan nan nan nan nan nan nan 23 24 25 26 26 25 25 25 26 26 27 26 27 27 28 29 29 30 30 30 29 29 26 25 24 24 23 21 23 23 22 23 23 27 26 32 33 33 31 29 27 22 24 24 22 22 21 19 17 15 15 16 16 16 15 14 14 14 16 17 17 17 17 17
16 nan nan nan nan nan nan nan nan nan nan nan nan nan nan nan nan nan nan 22 22 23 24 24 25 26 26 26 26 26 27 28 26 26 27 28 29 31 32 32 32 32 31 29 27 27 25 24 23 22 23 22 24 24 21 27 27 30 34 33 31 30 24 25 26 24 23 23 22 19 17 16 17 16 16 15 15 14 15 15 17 17 18 18 18
nan nan nan nan nan nan nan nan nan nan nan nan nan nan nan nan 18 20 21 22 23 24 25 26 26 26 25 26 26 26 25 25 25 26 26 27 29 30 32 32 34 35 34 33 31 30 28 26 25 25 24 23 22 24 26 28 23 31 35 33 33 31 26 27 27 26 25 24 22 20 18 18 19 16 16 16 15 14 15 15 16 18 17 17 18
nan nan nan nan nan nan nan nan nan nan nan nan nan 18 18 18 nan nan 20 22 23 25 26 26 26 26 25 25 24 24 22 22 22 23 23 24 26 28 30 31 33 35 36 36 35 33 31 30 28 26 24 24 23 24 26 26 22 29 34 34 33 30 31 30 29 28 28 27 24 21 19 18 17 16 17 17 17 16 16 17 15 17 17 17 18
19 19 nan nan nan nan nan nan nan nan nan nan 19 19 19 18 19 20 21 22 23 25 26 27 26 25 25 25 23 22 20 19 18 19 19 20 22 24 26 27 30 33 36 37 37 37 34 32 30 27 26 25 23 23 24 26 22 26 32 35 35 34 32 31 30 29 30 29 25 21 20 19 17 16 16 16 16 15 16 15 15 17 17 18 19
20 21 nan 22 nan nan 24 24 nan nan nan nan 20 19 19 19 20 21 21 21 23 24 26 25 26 25 25 24 23 22 19 17 16 15 16 17 18 20 22 23 25 28 33 36 36 37 36 33 32 29 28 25 25 25 24 23 24 27 31 34 35 35 33 32 31 30 30 28 26 25 24 23 22 21 23 22 19 16 18 16 14 16 17 18 19
23 23 nan nan 24 25 nan nan nan nan nan 24 22 22 21 21 21 22 23 23 24 25 25 24 24 24 24 24 22 21 19 16 14 14 15 15 16 17 18 19 20 22 26 32 35 36 36 34 33 33 28 25 25 25 24 24 25 27 29 31 34 35 34 33 31 30 30 30 29 26 24 23 22 20 19 18 16 19 19 13 14 16 17 16 16
25 nan 25 25 nan nan nan nan 26 25 25 24 23 23 22 23 23 24 25 26 27 27 26 25 25 24 24 23 22 20 18 16 15 14 14 15 15 16 17 17 18 18 20 25 30 34 35 35 35 34 33 31 29 28 26 27 27 25 27 31 33 35 35 33 31 30 30 31 30 25 24 24 22 21 20 19 16 18 17 17 16 16 17 17 16
26 26 27 27 nan 26 25 26 25 24 23 22 22 22 22 23 24 25 26 26 27 28 27 26 25 24 23 23 21 20 19 17 16 16 16 16 16 17 17 17 17 17 18 20 24 29 32 33 34 35 34 31 29 28 29 29 30 24 23 27 32 35 35 35 34 30 30 29 26 26 26 23 23 21 17 17 17 19 19 18 18 18 18 19 19
nan nan nan nan nan 26 nan nan nan 23 22 21 22 22 22 22 23 24 25 26 27 27 27 25 25 24 24 23 21 20 20 18 17 17 17 18 19 19 20 20 18 17 16 17 20 24 28 30 32 33 33 32 31 32 29 25 26 28 28 26 30 35 35 38 40 39 34 29 29 29 27 24 24 21 19 17 18 19 20 19 20 20 20 20 21
nan nan nan nan nan nan nan nan nan 24 23 22 22 22 22 23 23 23 24 26 27 27 26 24 24 25 25 23 21 20 20 18 18 18 18 19 20 22 23 22 21 19 17 16 18 20 23 27 29 31 33 33 30 31 28 25 25 24 24 26 30 38 41 44 43 37 34 29 28 29 28 27 26 23 21 19 19 18 17 16 16 18 20 21 21
nan nan nan nan nan nan nan nan nan 23 23 23 23 22 23 23 23 23 24 25 26 26 24 24 24 25 24 22 21 19 18 18 19 19 19 21 22 23 23 22 22 21 19 17 16 18 20 23 27 30 31 32 32 29 28 33 32 31 28 29 30 32 37 41 39 37 35 29 30 32 30 30 28 24 22 22 21 19 17 15 14 14 14 15 17
27 nan nan nan nan nan nan nan 22 22 22 22 22 22 23 23 22 23 24 25 25 24 24 23 24 24 24 22 20 18 18 19 20 21 22 24 23 22 21 20 19 21 21 19 17 17 19 20 23 26 29 30 31 34 37 31 25 23 27 27 27 28 34 37 42 43 40 37 36 31 32 31 29 26 25 24 23 22 19 16 15 14 13 12 14
nan nan nan nan nan nan nan nan 21 20 21 21 22 22 22 23 22 23 24 24 24 24 24 23 23 24 23 21 19 19 18 19 21 23 24 24 22 20 19 19 18 19 20 20 18 17 18 19 21 24 28 31 30 33 33 31 28 24 24 26 28 27 31 35 40 41 40 37 38 36 35 30 29 29 27 26 24 24 24 22 19 18 17 14 13
28 nan nan nan nan nan nan nan nan 20 20 22 22 22 22 22 22 22 23 23 24 23 23 23 23 23 22 20 18 18 18 19 21 23 24 23 21 20 19 19 20 19 19 20 20 19 19 19 20 22 26 28 30 30 30 31 31 27 25 24 27 24 26 32 37 39 40 39 37 38 34 29 28 30 30 27 26 26 25 25 22 20 18 18 17
nan nan nan nan nan nan nan 22 21 21 22 22 22 22 22 22 22 22 22 23 23 24 23 23 22 22 21 19 17 17 17 18 20 22 22 21 21 20 20 20 21 20 20 20 20 21 20 19 19 21 23 25 27 28 28 30 31 29 27 29 27 24 23 29 34 36 39 41 40 38 35 30 28 31 30 30 29 28 26 24 22 21 20 20 18
nan nan nan nan 27 26 24 23 21 21 22 22 22 22 22 21 21 22 22 23 23 23 23 23 22 21 20 18 17 16 16 17 20 20 21 21 21 20 20 22 20 20 20 20 21 21 21 21 20 20 21 23 26 28 28 28 28 28 31 30 25 25 24 26 30 32 37 41 42 37 33 31 29 31 32 34 33 33 29 26 24 23 23 21 20
nan nan nan 28 28 26 25 22 20 21 22 23 22 22 21 21 21 22 22 23 23 23 23 22 21 20 19 18 17 17 16 17 19 20 20 20 21 21 21 21 20 19 20 20 21 21 21 21 20 19 20 23 24 28 29 28 27 29 32 30 26 23 21 24 31 35 37 38 39 32 29 31 33 33 37 39 34 34 29 29 28 26 25 23 22
nan nan nan nan 27 26 24 22 21 21 22 23 22 21 21 22 22 22 23 23 23 23 22 21 21 20 19 18 18 18 17 18 19 19 20 19 20 20 21 21 20 20 19 20 21 21 21 22 22 20 20 21 23 26 31 28 27 26 32 32 31 27 24 21 26 33 36 39 40 35 31 34 35 32 38 38 35 35 32 31 30 32 28 22 24
nan nan nan nan 27 25 22 22 22 22 22 22 22 23 22 22 22 23 23 23 22 22 22 22 21 21 20 19 19 18 18 19 19 19 20 20 21 21 21 21 20 20 20 20 20 21 20 22 23 22 21 22 23 24 27 29 27 26 28 32 35 31 25 21 21 26 36 39 40 38 39 35 31 34 37 38 36 36 32 33 37 33 25 21 30
nan nan nan 26 25 24 nan 23 24 23 23 23 23 23 22 23 24 24 24 23 23 22 22 22 22 21 20 19 19 19 18 18 19 20 20 20 21 21 21 21 20 20 20 19 18 19 19 20 22 23 22 21 23 25 25 29 27 25 24 28 31 30 28 26 21 20 25 33 39 43 40 39 36 33 34 35 37 36 34 34 35 30 26 29 37
nan nan 28 25 nan nan nan nan 24 24 24 24 24 24 24 24 nan nan 23 24 nan 22 23 22 22 21 20 19 18 19 19 20 20 21 20 19 20 21 22 21 22 20 19 18 18 18 19 20 22 23 22 21 22 23 23 26 27 25 23 24 28 28 28 28 24 20 20 26 33 39 40 38 36 35 33 34 34 36 34 36 31 28 30 31 33
nan nan nan nan nan nan nan nan nan 25 25 24 23 23 24 25 24 23 24 24 nan nan nan nan nan 21 21 20 19 18 20 22 21 20 19 18 20 21 21 21 20 19 18 18 18 18 18 19 21 23 24 23 22 24 25 24 26 26 24 23 22 24 28 28 25 22 20 21 28 34 33 34 34 31 34 33 35 35 36 35 32 32 32 33 34
nan nan nan nan 24 nan nan nan nan 26 25 26 25 25 25 25 24 27 26 24 24 nan nan nan nan 22 21 21 20 20 20 21 20 19 20 19 20 21 21 21 21 20 19 19 19 19 19 19 20 22 25 25 24 23 25 25 24 24 25 23 21 21 23 27 27 26 24 20 22 28 38 45 38 37 35 35 34 36 37 34 34 33 33 34 36
nan nan nan nan nan 23 23 24 25 25 26 27 27 26 24 24 26 28 26 25 nan nan nan nan nan 22 22 22 22 21 20 21 21 21 20 20 20 21 21 21 20 19 18 18 18 19 18 18 20 22 24 26 26 24 24 25 24 23 22 22 22 22 23 25 27 28 27 24 24 29 35 38 43 40 36 35 35 35 34 35 35 35 35 35 36
nan nan nan nan nan nan nan 24 24 25 26 28 27 27 25 26 27 27 nan nan nan nan nan nan nan nan 22 22 22 21 20 21 20 22 21 21 21 22 21 20 19 18 18 17 17 18 20 20 21 22 24 25 27 26 25 24 25 24 23 21 20 23 24 25 24 26 25 24 24 23 25 30 32 35 36 36 35 35 35 33 33 35 38 35 35
nan nan 24 nan nan nan nan 24 24 26 27 27 27 28 27 27 nan nan nan nan nan nan nan nan nan nan nan 24 22 23 21 20 20 22 22 22 22 22 22 21 19 18 17 16 16 17 19 19 17 20 24 25 26 27 27 26 26 26 26 26 26 26 25 25 27 28 27 25 23 21 19 20 23 26 29 31 30 31 33 32 33 32 34 35 36
25 24 24 nan nan nan 24 24 24 26 26 27 27 28 nan nan nan nan nan nan nan nan nan nan nan nan nan nan 24 21 20 22 21 21 21 20 21 21 20 19 19 18 16 15 15 17 17 19 21 22 24 25 25 26 28 27 26 26 27 28 27 28 30 30 29 29 28 27 26 24 21 21 21 23 24 25 26 27 27 29 29 29 29 31 31
25 nan 25 nan nan 24 24 23 24 26 27 27 27 28 nan nan nan nan nan nan nan nan nan nan nan nan nan nan nan nan 24 22 21 20 20 20 19 19 20 18 17 16 16 15 14 15 18 18 19 22 24 24 25 26 31 38 32 29 26 30 30 29 32 31 30 33 30 30 29 26 23 22 20 20 20 22 24 25 26 27 26 27 28 28 29
24 nan 24 24 24 24 23 24 25 27 27 28 nan nan nan nan nan nan nan nan nan nan nan nan nan nan nan nan nan nan 24 23 20 19 18 17 19 22 21 18 15 15 16 14 nan 13 14 19 20 21 22 23 24 29 36 32 28 26 26 26 26 27 31 36 40 36 31 30 29 26 22 20 19 19 19 20 22 24 26 27 28 29 28 26 27
23 23 23 23 24 23 24 24 26 27 27 nan nan nan nan nan nan nan nan nan nan nan nan nan nan nan nan nan nan nan nan 23 21 18 17 16 16 18 nan nan nan 14 12 nan nan nan nan nan 12 15 19 20 22 24 24 24 24 22 22 23 24 26 28 31 34 34 31 29 27 24 21 20 20 21 21 22 23 24 26 26 27 29 26 25 24
Wind_Direction
54 51 56 55 53 52 55 65 68 66 60 58 54 52 52 51 42 40 38 32 9 344 327 313 313 310 306 290 267 265 269 267 268 272 267 263 254 244 237 203 253 256 240 228 220 215 208 202 200 209 212 207 199 178 160 157 185 191 184 191 138 102 106 39 13 147 130 110 155 157 162 115 68 170 207 193 190 207 187 180 172 166 162 171 179
32 35 37 41 46 49 48 54 60 61 59 66 64 62 56 50 52 46 38 29 28 22 359 351 338 320 302 289 279 281 276 265 258 264 265 259 264 256 247 246 189 243 238 234 227 218 219 212 210 213 215 213 202 182 167 181 178 181 177 165 137 112 105 67 336 319 38 68 149 151 162 204 190 238 218 224 230 227 220 206 186 184 170 169 191
33 30 38 34 28 33 41 44 49 55 59 65 66 64 63 58 48 41 35 30 14 35 34 31 21 11 1 346 313 297 284 262 256 246 249 251 251 254 266 248 221 230 226 231 224 228 223 216 206 209 216 221 217 201 182 143 171 166 178 169 168 135 94 62 331 342 133 185 176 146 155 223 155 182 196 232 274 241 239 231 217 203 175 169 188
20 33 35 34 32 27 31 33 34 39 44 48 51 56 56 51 42 32 27 26 22 17 25 29 33 28 25 14 1 339 302 277 262 267 267 256 259 271 264 257 244 241 237 200 228 206 223 220 215 209 222 230 221 213 202 161 202 215 194 192 195 156 185 154 313 299 175 199 157 185 186 179 214 155 329 217 248 270 260 253 235 214 220 148 180
4 10 14 18 26 27 34 39 28 26 31 37 45 42 45 44 37 30 24 21 18 17 16 18 21 24 22 18 12 9 347 303 267 263 267 265 264 271 266 251 244 249 245 225 209 216 228 225 220 212 217 227 233 235 236 197 169 212 235 213 216 182 162 211 259 262 263 218 187 186 185 187 192 219 197 217 254 249 273 276 244 307 276 262 197
347 346 352 354 353 360 13 21 20 13 11 20 31 33 34 32 29 22 20 16 14 13 13 10 9 15 12 8 6 356 358 342 314 279 267 270 273 266 265 251 245 240 228 251 233 198 237 237 234 228 217 229 238 234 235 249 235 200 240 249 249 343 182 231 244 266 208 240 242 194 189 186 192 193 183 224 213 230 251 258 273 287 270 281 268
339 336 338 335 333 332 333 345 350 347 349 353 351 355 5 7 15 8 8 6 4 8 9 5 6 5 8 7 3 360 4 359 336 296 258 257 262 265 258 245 238 238 236 229 246 228 229 235 237 235 227 223 234 240 245 247 250 251 240 255 255 248 284 232 237 257 255 239 248 215 210 191 193 189 197 195 205 225 201 253 254 276 281 290 294
338 331 328 326 322 323 324 330 333 338 346 343 334 334 329 329 342 346 347 345 349 356 358 358 360 359 359 359 352 354 355 347 337 327 288 261 256 256 257 253 243 246 248 235 231 225 217 232 236 232 231 231 235 237 240 247 249 245 249 248 246 251 256 247 256 274 274 256 235 232 239 218 186 194 194 192 191 192 239 236 234 262 254 268 281
334 330 327 326 325 324 326 325 327 330 332 330 329 324 319 315 317 321 322 333 332 334 338 342 346 345 347 348 347 344 343 338 327 328 322 300 264 257 260 257 251 242 244 257 249 259 252 238 236 234 234 234 234 237 240 244 252 253 252 252 251 253 258 259 234 248 259 255 252 243 232 220 212 213 213 218 195 198 202 213 241 244 224 216 252
336 331 328 326 325 326 325 328 328 328 325 323 322 321 317 316 309 307 305 310 312 314 320 325 324 326 331 330 337 333 324 318 311 317 304 295 279 266 259 259 261 256 247 235 233 241 233 233 233 235 236 238 238 226 233 246 250 255 256 253 256 259 256 260 261 249 243 238 242 243 244 229 211 212 224 225 220 211 203 207 221 249 248 233 246
333 326 322 322 321 320 318 315 317 319 319 318 316 313 313 309 305 301 298 299 297 296 299 302 308 309 314 313 314 318 314 311 306 305 304 303 296 284 275 273 265 262 262 252 231 241 245 240 233 234 236 238 245 241 240 247 253 259 260 261 250 247 251 257 259 252 229 237 211 234 242 240 231 227 228 230 221 225 223 218 224 218 216 221 229
320 316 315 316 316 315 316 316 315 311 308 305 304 302 298 297 295 292 292 292 293 293 294 295 299 297 300 300 304 307 310 306 305 305 301 298 287 276 270 263 261 261 262 266 255 245 244 245 244 237 236 237 239 241 241 246 249 253 258 259 257 255 249 251 259 264 282 239 231 219 236 237 239 234 231 237 234 221 215 218 223 232 233 226 230
nan nan nan nan 308 309 310 312 314 310 308 304 301 300 296 291 286 285 285 287 289 290 289 290 291 290 292 294 295 295 296 300 303 303 301 295 290 286 278 270 264 264 265 259 263 262 253 253 251 247 244 243 240 238 240 243 245 248 252 258 259 258 258 261 258 261 258 248 248 236 215 229 241 235 236 235 237 235 229 221 221 221 224 232 229
nan nan nan 312 308 309 309 309 308 308 305 306 304 304 302 298 292 287 286 283 285 285 285 286 286 286 286 286 288 290 292 294 294 293 290 288 287 288 285 282 277 270 259 261 258 257 260 249 239 242 248 249 249 246 240 238 240 243 248 250 258 261 257 260 258 264 260 258 237 223 222 222 227 240 237 236 235 235 234 227 228 227 225 226 233
nan nan nan nan 302 301 301 302 302 300 299 302 304 307 306 304 297 294 290 288 285 283 283 281 284 285 285 286 287 288 287 288 290 290 289 286 284 282 282 280 278 276 274 268 261 257 260 261 252 242 250 251 253 252 248 245 240 238 240 243 247 256 259 254 256 262 263 264 255 238 223 218 221 231 234 239 242 236 227 223 228 227 222 220 231
nan 310 306 nan 300 300 300 300 297 nan nan 301 302 305 305 305 301 297 295 292 291 289 286 285 283 285 284 283 282 283 286 287 286 287 286 286 286 283 282 283 282 280 279 277 277 274 271 269 264 255 247 244 251 255 253 249 245 236 237 241 244 250 256 262 252 250 258 264 254 245 238 227 222 220 226 233 238 238 236 234 239 240 232 230 231
306 nan nan nan nan nan 299 300 nan nan nan nan 304 305 303 303 300 296 295 295 293 295 293 294 292 289 287 283 282 279 279 279 280 278 276 277 280 281 281 280 278 280 280 281 281 278 272 269 267 265 259 245 237 251 256 254 248 242 240 240 242 246 252 259 259 253 249 257 256 250 239 236 232 226 223 230 237 238 240 241 239 236 238 230 229
nan nan 302 299 nan nan nan nan nan nan nan nan nan nan nan nan 297 297 nan 292 293 296 295 295 293 293 291 288 284 282 278 275 274 272 272 273 273 273 275 274 276 277 278 275 277 279 275 272 265 263 262 255 246 240 254 256 252 244 242 238 240 243 246 252 258 256 251 249 251 250 246 239 238 232 231 232 232 241 241 241 242 241 240 237 235
310 309 307 302 nan nan nan nan nan nan nan nan nan nan nan nan 296 nan nan nan 295 298 297 299 295 295 295 291 289 287 283 278 273 270 269 268 267 267 267 269 269 270 272 274 275 275 275 273 269 264 263 262 253 243 245 251 253 248 246 236 235 243 244 249 255 256 251 248 249 246 239 234 236 237 238 239 237 238 241 240 240 242 239 238 237
312 307 304 301 nan nan nan nan nan nan nan nan nan nan nan nan nan nan nan nan nan 298 300 300 299 300 298 297 295 293 290 285 279 272 268 264 263 261 261 262 263 263 264 262 264 268 271 270 269 268 266 264 261 251 238 246 250 248 246 241 239 239 246 247 251 254 253 251 247 245 240 234 236 231 227 234 241 242 242 242 243 240 238 239 238
309 304 307 308 nan nan nan nan nan nan nan nan nan nan nan nan nan nan nan nan nan 298 302 303 305 305 302 300 298 296 294 290 286 278 270 265 261 259 258 257 258 258 259 260 261 263 264 266 267 267 266 263 261 255 248 240 245 249 246 243 236 235 242 247 246 248 252 251 247 242 237 235 234 233 231 231 235 242 246 246 242 243 242 243 243
307 nan nan nan nan nan nan nan nan nan nan nan nan nan nan nan nan nan nan 300 302 303 305 306 307 307 305 303 300 301 299 296 291 284 278 271 263 258 255 254 255 256 256 256 257 259 259 262 263 265 266 264 264 264 256 250 244 246 249 244 236 236 233 243 244 246 248 246 248 245 240 233 232 231 231 229 231 234 243 246 250 247 242 241 243
nan nan nan nan nan nan nan nan nan nan nan nan nan nan nan nan 295 299 303 303 306 307 309 310 310 309 308 305 304 302 299 298 297 292 286 279 271 263 256 250 250 252 255 257 255 255 254 254 256 259 261 260 260 262 261 252 246 249 248 248 242 236 237 240 243 243 245 246 246 247 246 239 232 233 238 235 233 233 237 241 247 249 247 244 243
nan nan nan nan nan nan nan nan nan nan nan nan nan 296 295 296 nan nan 304 305 308 310 311 310 311 310 310 309 306 302 299 298 297 295 293 288 282 274 266 257 250 249 250 253 253 252 251 252 253 254 258 257 255 255 255 260 262 250 245 246 246 241 237 236 238 242 244 242 241 242 246 245 238 234 238 241 243 239 234 236 239 247 248 244 242
310 313 nan nan nan nan nan nan nan nan nan nan 297 296 297 297 300 302 306 307 309 311 312 311 311 311 310 308 305 301 298 297 296 295 296 296 293 288 280 269 257 249 247 249 252 254 253 250 252 252 251 255 257 255 254 258 260 251 245 242 242 239 235 235 236 239 242 244 244 246 246 244 241 234 240 249 250 250 251 246 246 247 248 248 245
314 312 nan 312 nan nan 310 309 nan nan nan nan 300 299 298 301 303 306 308 309 310 312 311 312 310 310 309 308 304 300 297 294 293 295 298 299 299 298 294 286 273 257 249 247 249 252 253 251 248 248 254 251 249 254 255 258 264 256 245 241 240 238 236 236 237 238 241 244 242 240 240 239 235 228 227 227 232 238 242 247 250 248 246 247 247
317 312 nan nan 311 308 nan nan nan nan nan 308 305 302 303 306 310 311 313 315 315 314 313 312 310 309 309 307 302 297 294 293 292 295 299 300 302 303 303 300 290 273 257 249 246 249 251 251 250 250 250 251 250 250 250 252 256 257 249 243 241 241 238 237 238 238 240 243 243 240 241 242 238 229 225 225 228 241 246 246 253 256 254 251 250
313 nan 313 310 nan nan nan nan 311 310 309 307 304 303 304 310 313 315 317 318 318 317 316 314 311 309 308 305 297 287 285 287 289 293 298 300 301 303 304 306 303 291 272 257 249 247 248 249 249 249 250 247 243 243 245 248 248 253 250 241 240 242 240 236 236 239 241 242 244 244 244 242 238 235 231 227 221 234 243 246 249 256 258 256 254
315 311 309 306 nan 305 306 306 306 305 301 300 300 301 305 310 314 316 317 318 318 319 318 316 312 309 306 303 293 283 279 281 284 290 294 298 299 300 303 305 306 301 288 269 256 251 249 247 246 245 247 248 246 246 246 244 245 245 244 241 239 241 240 238 237 237 239 239 241 245 245 240 242 241 239 232 226 229 235 242 246 251 256 259 258
nan nan nan nan nan 303 nan nan nan 300 299 298 298 300 304 309 313 314 315 317 318 319 318 313 311 309 308 305 296 283 278 279 281 285 289 293 296 297 298 299 300 301 297 282 267 257 253 250 248 247 244 243 245 245 243 239 239 242 245 240 234 237 238 236 234 229 224 230 240 242 241 243 240 244 243 237 232 228 228 230 240 249 256 258 259
nan nan nan nan nan nan nan nan nan 300 300 300 301 302 306 310 312 313 315 317 319 319 317 313 311 310 310 307 299 287 280 282 284 287 288 291 295 295 294 292 292 293 295 289 277 263 255 251 248 246 246 246 243 241 241 244 240 238 241 241 233 231 232 235 234 229 229 224 234 241 238 244 245 240 239 242 240 241 235 230 225 226 238 249 258
nan nan nan nan nan nan nan nan nan 299 299 300 300 302 306 308 310 314 316 320 321 319 315 314 313 313 312 309 302 291 285 284 287 290 292 295 296 296 292 289 285 283 284 285 280 270 260 253 247 243 242 242 244 246 240 232 229 233 237 241 240 234 230 231 231 232 233 232 228 232 236 237 241 244 242 240 243 246 244 238 237 235 237 243 245
296 nan nan nan nan nan nan nan 294 295 297 296 296 299 303 307 312 315 320 322 320 317 316 315 314 315 313 309 304 298 292 291 291 295 298 300 300 298 295 289 283 278 275 275 275 272 265 254 247 243 241 238 237 246 250 243 241 234 236 243 241 232 228 229 228 226 226 226 231 229 230 236 236 250 247 243 244 249 254 252 246 244 240 243 250
nan nan nan nan nan nan nan nan 292 293 292 294 296 299 305 310 315 317 319 320 319 317 317 315 315 315 312 307 302 298 296 296 296 298 300 301 301 299 295 291 285 279 273 268 267 268 266 260 252 244 240 237 234 242 253 248 246 247 241 242 246 240 224 221 225 224 225 228 230 230 229 226 234 242 245 248 246 248 252 253 250 246 243 248 257
300 nan nan nan nan nan nan nan nan 290 295 298 298 302 307 313 315 316 316 319 319 319 318 315 315 315 311 305 297 296 295 295 297 299 301 303 302 299 295 290 286 282 276 269 261 260 263 261 253 247 242 240 237 239 249 250 248 246 246 244 247 244 232 223 224 224 224 226 229 229 230 232 230 237 242 247 248 249 250 249 252 255 253 250 253
nan nan nan nan nan nan nan 298 297 299 299 300 301 303 309 312 313 314 316 318 320 320 317 315 314 314 312 305 297 293 293 294 297 301 304 303 300 298 296 291 289 283 278 273 264 259 257 257 254 247 241 239 239 245 248 246 242 238 244 244 245 247 237 227 226 225 225 227 230 229 228 233 233 232 237 245 244 243 245 245 247 250 251 252 252
nan nan nan nan 305 308 305 303 302 301 302 302 302 304 307 310 312 313 315 318 319 320 317 314 314 314 313 308 301 295 293 295 298 302 304 302 300 298 298 294 290 284 277 271 266 259 255 254 252 248 242 238 236 249 254 251 247 242 243 242 242 245 241 229 226 227 227 227 229 228 231 233 234 231 231 239 242 236 236 239 243 245 248 250 250
nan nan nan 309 309 309 309 305 300 304 304 305 305 305 307 311 313 314 315 317 318 318 316 316 315 315 314 312 307 301 298 296 297 301 302 302 300 300 300 298 295 287 279 273 267 260 255 253 251 249 244 236 234 240 255 253 250 245 245 244 245 244 243 236 227 226 227 225 229 232 232 231 229 230 237 238 242 246 239 235 236 243 246 248 250
nan nan nan nan 307 308 307 306 306 307 305 306 305 304 308 312 313 314 314 316 316 315 315 317 317 317 316 314 312 309 305 299 298 299 300 300 300 298 300 300 297 292 284 276 270 263 255 250 248 246 242 240 236 238 256 257 259 252 245 241 243 243 244 245 234 227 226 227 229 231 238 237 237 233 237 241 244 246 245 243 239 235 236 241 247
nan nan nan nan 308 311 310 305 303 304 304 305 303 305 309 309 311 313 314 313 312 313 316 318 319 318 317 316 315 310 307 303 300 298 298 299 299 299 300 300 298 293 285 279 272 265 255 248 244 243 243 243 240 236 244 262 260 256 250 243 243 241 242 249 246 233 230 229 231 230 233 238 239 239 239 244 246 249 245 246 245 243 242 243 243
nan nan nan 309 309 308 nan 305 304 305 305 304 303 304 306 307 311 314 312 311 311 314 317 317 318 319 318 319 317 312 309 306 303 300 298 298 298 298 297 297 296 290 284 280 273 266 258 249 245 243 241 242 243 238 237 258 258 259 255 250 241 240 238 243 248 242 233 230 232 234 231 236 242 243 242 244 248 250 249 246 248 246 247 242 239
nan nan 307 309 nan nan nan nan 304 305 305 304 304 305 306 308 nan nan 310 310 nan 313 315 315 317 320 320 321 318 312 311 309 306 301 298 297 296 296 297 296 295 290 286 283 276 267 259 251 246 243 243 241 242 250 242 250 258 257 258 256 245 237 235 238 242 245 238 232 232 237 235 235 237 241 245 243 244 247 251 248 246 244 241 240 241
nan nan nan nan nan nan nan nan nan 305 304 305 305 305 305 307 309 308 308 309 nan nan nan nan nan 317 319 321 319 315 311 308 306 301 297 295 295 298 299 299 296 291 285 280 275 266 257 250 246 244 242 241 242 243 252 243 254 258 256 256 254 241 231 233 238 242 244 236 231 232 237 244 249 246 249 246 244 245 246 247 246 242 240 240 243
nan nan nan nan 305 nan nan nan nan 305 306 305 304 304 305 307 308 305 307 309 310 nan nan nan nan 315 317 319 318 316 313 310 307 302 299 298 300 301 300 298 296 292 285 276 269 264 257 251 244 243 241 241 242 243 248 254 245 251 255 256 254 248 239 237 238 242 245 241 233 230 228 231 241 250 251 251 250 249 246 248 250 249 247 245 245
nan nan nan nan nan 303 302 303 303 304 304 304 303 304 304 305 304 304 306 308 nan nan nan nan nan 313 314 316 317 316 314 311 309 306 303 302 305 305 303 299 295 291 285 274 266 261 253 245 245 241 240 241 241 239 239 249 254 247 250 249 247 245 239 237 236 239 243 244 239 233 230 232 233 237 242 244 243 244 246 246 250 254 254 251 252
nan nan nan nan nan nan nan 302 302 300 302 303 304 304 304 303 302 303 nan nan nan nan nan nan nan nan 311 313 315 315 315 313 312 308 306 306 307 308 305 298 292 286 280 273 265 256 251 244 236 237 238 238 237 237 238 241 244 246 243 249 246 242 238 239 238 237 241 241 238 233 226 228 233 240 241 243 245 245 249 250 250 252 252 252 253
nan nan 301 nan nan nan nan 300 300 299 301 302 302 304 304 303 nan nan nan nan nan nan nan nan nan nan nan 310 312 312 311 313 312 308 305 303 304 307 307 304 297 288 279 272 264 257 254 257 253 242 236 236 236 234 233 237 239 238 234 235 245 241 241 235 234 236 242 244 248 249 244 239 234 233 237 238 238 242 248 250 250 252 254 255 254
303 303 300 nan nan nan 299 298 300 299 301 302 302 303 nan nan nan nan nan nan nan nan nan nan nan nan nan nan 310 313 315 313 309 306 303 302 303 306 307 304 296 289 279 270 263 257 249 245 241 237 234 233 233 233 235 239 239 233 228 229 231 232 234 233 233 234 238 242 245 251 253 247 241 238 239 240 242 243 243 244 247 252 255 258 261
304 nan 301 nan nan 299 299 300 301 301 302 302 303 303 nan nan nan nan nan nan nan nan nan nan nan nan nan nan nan nan 308 310 309 306 306 303 303 304 307 305 297 288 279 269 261 256 252 244 238 237 234 231 231 228 232 237 237 237 233 229 226 228 227 228 230 233 232 238 241 244 244 244 242 238 238 239 239 242 243 247 250 253 255 256 258
302 nan 299 298 298 299 300 302 303 303 304 304 nan nan nan nan nan nan nan nan nan nan nan nan nan nan nan nan nan nan 306 307 305 303 301 301 308 318 319 311 302 298 297 288 nan 267 252 242 237 236 234 231 229 229 235 231 230 227 224 228 225 221 221 222 227 237 233 234 238 241 243 242 240 239 239 241 242 241 242 243 245 248 252 254 255
298 298 298 297 298 301 304 305 305 304 306 nan nan nan nan nan nan nan nan nan nan nan nan nan nan nan nan nan nan nan nan 302 303 302 299 297 298 304 nan nan nan 320 300 nan nan nan nan nan 252 237 232 225 218 211 205 208 215 221 226 225 227 226 224 226 230 233 233 233 233 236 240 240 240 239 238 241 244 244 245 243 242 245 249 253 257